Regional Weather Roundup
Issued by NWS

Home | Current Version | Previous Version | Text Only | Print | Product List | Glossary Off
Versions: 1 2 3 4 5 6 7 8 9 10 11 12 13 14 15 16 17 18 19 20 21 22 23 24 25 26 27 28 29 30 31 32 33 34 35 36 37 38 39 40 41 42 43 44 45 46 47 48 49 50

000
ASUS43 KLMK 291710
RWRKY
KENTUCKY REGIONAL WEATHER ROUNDUP
NATIONAL WEATHER SERVICE LOUISVILLE KY
100 PM EDT MON JUN 29 2015

NOTE "FAIR" INDICATES FEW OR NO CLOUDS BELOW 12,000 FEET
WITH NO SIGNIFICANT WEATHER AND/OR OBSTRUCTIONS TO VISIBILITY.

KYZ001>023-026-027-061>063-070>075-291800-
WESTERN AND SOUTH CENTRAL KENTUCKY

CITY           SKY/WX    TMP DP  RH WIND       PRES   REMARKS
PADUCAH        MOSUNNY   85  68  56 W9        29.85S
HENDERSON      MOSUNNY   82  70  65 W12G17    29.82S
OWENSBORO      PTSUNNY   83  71  66 W15       29.84S
HOPKINSVILLE   PTSUNNY   83  69  63 SW16      29.87S
BOWLING GREEN  PTSUNNY   84  67  56 SW15      29.87S
GLASGOW        CLOUDY    79  66  64 SW16      29.88S
$$

KYZ024-025-028>034-038-045-046-053-291800-
NORTH CENTRAL KENTUCKY

CITY           SKY/WX    TMP DP  RH WIND       PRES   REMARKS
LOUISVILLE/SDF PTSUNNY   82  68  62 SW15G21   29.81F
LOUISVILLE/LOU CLOUDY    79  67  66 SW12      29.82S
FORT KNOX      PTSUNNY   79  68  69 SW13      29.82S
$$

KYZ035>037-039>044-047>052-055>060-089>105-291800-
NORTHEAST KENTUCKY

CITY           SKY/WX    TMP DP  RH WIND       PRES   REMARKS
LEXINGTON      MOSUNNY   79  65  62 SW15G25   29.85F
COVINGTON      CLOUDY    68  65  90 S7        29.83F
FRANKFORT      CLOUDY    77  65  66 SW13      29.83S
$$

KYZ054-064>069-076>088-106>120-291800-
SOUTHEAST KENTUCKY

CITY           SKY/WX    TMP DP  RH WIND       PRES   REMARKS
JACKSON        PTSUNNY   75  61  61 VRB3      29.93F
LONDON         MOSUNNY   78  59  51 S16G26    29.93F
SOMERSET       MOSUNNY   77  61  57 SW12G18   29.92F
MIDDLESBORO    CLOUDY    74  58  58 S9        29.99S
MONTICELLO     SUNNY     80  67  64 SW16G24   29.94F
$$



USA.gov is the U.S. government's official web portal to all federal, state and local government web resources and services.